FW8893 Weather Reports


time (UTC)temp
F
wind
direction
speed
knots
gust
knots
rain 1hr
in
rain 24hr
in
rain mn
in
humidity
%
barometer
mb
20240613045732 62 157 0.0 0.9 0.00 0.00 0.00 93 1013.8
20240613045230 62 180 0.0 0.0 0.00 0.00 0.00 92 1013.8
20240613044730 62 190 0.0 0.0 0.00 0.00 0.00 92 1013.8
20240613044229 62 171 0.0 0.0 0.00 0.00 0.00 92 1013.8
20240613043729 62 156 0.0 0.0 0.00 0.00 0.00 91 1013.8
20240613043227 62 176 0.0 0.0 0.00 0.00 0.00 91 1013.8
20240613042726 62 183 0.0 0.0 0.00 0.00 0.00 92 1013.8
20240613042226 62 176 0.0 0.0 0.00 0.00 0.00 93 1014.1
20240613041723 61 169 0.0 0.0 0.00 0.00 0.00 94 1014.1
20240613041222 61 174 0.0 0.0 0.00 0.00 0.00 94 1014.1
20240613040721 61 171 0.0 0.0 0.00 0.00 0.00 94 1014.1
20240613040220 61 169 0.0 0.0 0.00 0.00 0.00 95 1013.8
20240613035718 61 152 0.0 0.0 0.00 0.32 0.32 95 1014.1
20240613035216 61 156 0.0 0.0 0.00 0.32 0.32 95 1013.8
20240613034716 61 152 0.0 0.0 0.00 0.32 0.32 95 1014.1
20240613034215 61 159 0.0 0.0 0.00 0.32 0.32 95 1013.8
20240613033714 61 155 0.0 0.0 0.00 0.32 0.32 95 1013.8
20240613033213 61 151 0.0 0.0 0.00 0.32 0.32 95 1014.1
20240613032712 61 173 0.0 0.0 0.00 0.32 0.32 95 1014.1
20240613032210 61 161 0.0 0.0 0.00 0.32 0.32 95 1013.8
20240613031709 61 183 0.0 0.0 0.00 0.32 0.32 94 1014.1
20240613031207 61 175 0.0 0.0 0.00 0.32 0.32 94 1014.1
20240613030706 61 137 0.0 0.0 0.00 0.32 0.32 94 1014.1
20240613030205 61 164 0.9 0.9 0.00 0.32 0.32 94 1014.1
20240613025705 61 147 0.9 0.9 0.00 0.32 0.32 94 1014.1
20240613025203 61 150 0.0 0.0 0.00 0.32 0.32 95 1014.1
20240613024702 60 174 0.0 0.0 0.00 0.32 0.32 95 1014.1
20240613024201 60 167 0.0 0.0 0.00 0.32 0.32 95 1014.1
20240613023659 60 169 0.0 0.0 0.00 0.32 0.32 95 1013.8
20240613023158 60 177 0.0 0.0 0.00 0.32 0.32 95 1014.1
20240613022658 60 175 0.0 0.0 0.00 0.32 0.32 95 1014.1
20240613022157 60 171 0.0 0.0 0.00 0.32 0.32 95 1013.8
20240613021656 61 165 0.0 0.0 0.00 0.32 0.32 94 1014.1
20240613021154 61 154 0.9 0.9 0.00 0.32 0.32 94 1013.8
20240613020653 61 148 0.0 0.0 0.00 0.32 0.32 94 1013.8
20240613020152 61 176 0.0 0.0 0.00 0.32 0.32 93 1013.8
20240613015652 61 174 0.0 0.0 0.00 0.32 0.32 94 1013.8
20240613015151 60 178 0.0 0.0 0.00 0.32 0.32 94 1013.8
20240613014649 60 230 0.9 2.6 0.00 0.32 0.32 96 1013.8
20240613014147 60 176 0.0 0.0 0.00 0.32 0.32 96 1014.1
20240613013646 60 149 0.9 0.9 0.00 0.32 0.32 96 1013.8
20240613013145 60 154 0.0 0.9 0.00 0.32 0.32 95 1013.8
20240613012645 60 178 0.0 0.0 0.00 0.32 0.32 95 1013.8
20240613012145 61 170 0.0 0.0 0.00 0.32 0.32 93 1013.8
20240613011644 61 275 1.7 1.7 0.00 0.32 0.32 92 1013.8
20240613011144 61 194 0.0 0.9 0.00 0.32 0.32 92 1013.8
20240613010642 61 191 0.0 0.0 0.00 0.32 0.32 93 1013.8
20240613010141 61 191 0.0 0.0 0.00 0.32 0.32 94 1013.4
20240613005640 61 204 0.0 0.0 0.00 0.32 0.32 95 1013.8
20240613005137 62 216 0.0 0.0 0.00 0.32 0.32 95 1013.4
20240613004635 62 220 0.0 0.0 0.00 0.32 0.32 96 1013.4
20240613004134 62 211 0.9 0.9 0.00 0.32 0.32 96 1013.4
20240613003633 62 206 0.9 0.9 0.00 0.32 0.32 96 1013.4
20240613003130 63 208 0.0 0.9 0.00 0.32 0.32 95 1013.4
20240613002629 63 200 0.0 0.9 0.00 0.32 0.32 95 1013.4
20240613002128 63 206 0.0 0.9 0.00 0.32 0.32 94 1013.4
20240613001626 63 191 0.0 0.0 0.00 0.32 0.32 94 1013.4
20240613001124 64 174 0.0 0.0 0.00 0.32 0.32 94 1013.4
20240613000624 64 174 0.0 0.9 0.00 0.32 0.32 94 1013.4
20240613000122 64 173 0.0 0.0 0.00 0.32 0.32 93 1013.4
20240612235620 64 173 0.0 0.0 0.00 0.32 0.32 93 1013.4
20240612235119 64 174 0.0 0.0 0.00 0.32 0.32 92 1013.4
20240612234618 65 174 0.0 0.0 0.00 0.32 0.32 92 1013.1
20240612234116 65 174 0.0 0.0 0.00 0.32 0.32 91 1013.4
20240612233615 65 209 0.0 0.0 0.00 0.32 0.32 91 1013.4
20240612233113 65 230 0.0 0.9 0.00 0.32 0.32 91 1013.4
20240612232610 66 230 0.0 0.0 0.00 0.32 0.32 91 1013.1
20240612232109 66 230 0.0 0.0 0.00 0.32 0.32 90 1013.4
20240612231609 66 250 1.7 2.6 0.00 0.32 0.32 90 1013.1
20240612231107 66 223 0.0 0.0 0.00 0.32 0.32 90 1013.4
20240612230605 66 241 0.9 0.9 0.00 0.32 0.32 89 1013.4
20240612230104 66 225 0.0 0.0 0.00 0.32 0.32 89 1013.1
20240612225603 66 236 0.9 0.9 0.00 0.32 0.32 89 1013.1
20240612225103 67 221 0.9 0.9 0.00 0.32 0.32 89 1013.1
20240612224602 67 260 1.7 1.7 0.00 0.32 0.32 89 1013.1
20240612224101 67 202 0.0 0.0 0.00 0.32 0.32 88 1013.1
20240612223559 67 208 0.0 0.0 0.00 0.32 0.32 88 1013.1
20240612223057 67 279 1.7 1.7 0.00 0.32 0.32 88 1013.1
20240612222556 67 233 0.9 0.9 0.00 0.32 0.32 89 1013.1
20240612222054 67 226 0.0 0.0 0.00 0.32 0.32 89 1013.1
20240612221554 67 254 0.9 0.9 0.00 0.32 0.32 89 1013.1
20240612221053 67 230 0.0 0.9 0.00 0.32 0.32 89 1013.1
20240612220551 67 235 0.9 0.9 0.00 0.32 0.32 90 1013.4
20240612220049 67 237 0.9 0.9 0.00 0.32 0.32 89 1013.4
20240612215548 68 229 0.0 0.0 0.00 0.32 0.32 89 1013.4
20240612215046 68 202 0.0 0.0 0.00 0.32 0.32 88 1013.4
20240612214545 68 255 0.0 0.0 0.00 0.32 0.32 89 1013.4
20240612214043 68 255 0.0 0.0 0.00 0.32 0.32 87 1013.4
20240612213542 69 277 0.9 0.9 0.00 0.32 0.32 86 1013.8
20240612213040 69 248 0.0 0.0 0.00 0.32 0.32 88 1013.4
20240612212538 69 248 0.0 0.0 0.00 0.32 0.32 89 1013.4
20240612212036 68 248 0.0 0.0 0.00 0.32 0.32 89 1013.8
20240612211533 69 248 0.0 0.0 0.00 0.32 0.32 89 1013.4
20240612211030 68 248 0.0 0.0 0.00 0.32 0.32 87 1013.8
20240612210527 68 248 0.0 0.0 0.00 0.32 0.32 89 1013.8
20240612210027 68 248 0.0 0.0 0.00 0.32 0.32 88 1013.8
20240612205525 69 248 0.9 0.9 0.00 0.32 0.32 88 1013.8
20240612205023 69 248 0.0 0.0 0.00 0.32 0.32 88 1013.4
20240612204522 69 248 0.0 0.0 0.00 0.32 0.32 88 1013.8
20240612204021 69 248 0.0 0.0 0.00 0.32 0.32 89 1013.8
20240612203520 69 249 0.0 0.0 0.00 0.32 0.32 89 1013.8
20240612203018 68 248 0.0 0.0 0.00 0.32 0.32 89 1013.8
20240612202512 68 248 0.0 0.0 0.00 0.32 0.32 89 1014.1
20240612202012 69 249 0.0 0.0 0.00 0.32 0.32 89 1014.1
20240612201512 69 249 0.0 0.0 0.00 0.32 0.32 87 1013.8
20240612201010 69 249 0.0 0.0 0.00 0.32 0.32 87 1014.1
20240612200507 69 249 0.0 0.0 0.00 0.32 0.32 87 1014.1
20240612200007 68 259 0.0 0.0 0.00 0.32 0.32 86 1014.1
20240612195506 69 254 0.9 0.9 0.00 0.32 0.32 86 1014.1
20240612195003 71 219 1.7 1.7 0.00 0.32 0.32 84 1014.1
20240612194502 71 251 1.7 1.7 0.00 0.32 0.32 85 1014.1
20240612194001 71 223 0.9 0.9 0.00 0.32 0.32 84 1013.8
20240612193457 72 218 0.9 1.7 0.00 0.32 0.32 83 1013.8
20240612192956 70 237 0.0 0.0 0.00 0.32 0.32 86 1013.8
20240612192455 69 211 0.9 0.9 0.00 0.32 0.32 86 1013.8
20240612191955 70 311 2.6 2.6 0.00 0.32 0.32 85 1014.1
20240612191453 69 249 0.0 0.0 0.00 0.32 0.32 89 1013.8
20240612190952 68 218 0.0 0.0 0.00 0.32 0.32 88 1014.1
20240612190450 66 236 0.9 0.9 0.00 0.32 0.32 92 1013.8
20240612185947 66 228 0.9 0.9 0.00 0.32 0.32 92 1013.8
20240612185446 65 251 0.9 1.7 0.00 0.32 0.32 92 1014.1
20240612184946 65 232 0.9 0.9 0.00 0.32 0.32 93 1014.1
20240612184444 65 235 0.0 0.0 0.00 0.32 0.32 94 1014.1
20240612183943 64 235 0.0 0.0 0.00 0.32 0.32 95 1014.1
20240612183442 64 236 0.0 0.9 0.00 0.32 0.32 95 1014.1
20240612182941 65 258 2.6 4.3 0.00 0.32 0.32 95 1014.1
20240612182439 67 308 2.6 2.6 0.00 0.32 0.32 95 1014.1
20240612181939 66 190 0.9 0.9 0.00 0.32 0.32 97 1014.1
20240612181438 65 274 0.9 1.7 0.00 0.32 0.32 98 1014.1
20240612180937 64 220 0.9 0.9 0.00 0.32 0.32 97 1014.1
20240612180435 64 214 0.9 1.7 0.00 0.32 0.32 97 1014.5
20240612175934 64 192 0.0 0.0 0.29 0.32 0.32 97 1014.5
20240612175433 64 139 0.0 0.0 0.29 0.32 0.32 97 1014.5
20240612174930 64 172 0.0 0.0 0.29 0.32 0.32 97 1014.5
20240612174429 64 191 0.0 0.0 0.29 0.32 0.32 97 1014.8
20240612173928 64 205 0.0 0.0 0.29 0.32 0.32 97 1014.5
20240612173427 64 193 0.0 0.0 0.28 0.31 0.31 97 1014.8
20240612172925 63 167 0.0 0.0 0.28 0.31 0.31 96 1014.8
20240612172424 63 182 0.0 0.0 0.28 0.31 0.31 96 1014.8
20240612171923 63 174 0.0 0.9 0.27 0.30 0.30 95 1014.5
20240612171422 63 138 0.0 0.9 0.24 0.27 0.27 94 1014.5
20240612170922 64 107 1.7 2.6 0.17 0.20 0.20 92 1014.8
20240612170421 66 148 0.9 1.7 0.06 0.09 0.09 90 1014.8
20240612165920 68 80 0.9 0.9 0.01 0.01 0.01 86 1014.5
20240612165419 68 237 1.7 2.6 0.00 0.00 0.00 83 1014.5
20240612164917 70 256 0.0 0.9 0.00 0.00 0.00 81 1014.5
20240612164415 71 193 0.0 0.0 0.00 0.00 0.00 79 1014.5
20240612163914 73 161 0.9 0.9 0.00 0.00 0.00 76 1014.5
20240612163412 75 259 1.7 2.6 0.00 0.00 0.00 74 1014.5
20240612162911 73 221 0.0 0.9 0.00 0.00 0.00 75 1014.1
20240612162409 71 231 0.9 1.7 0.00 0.00 0.00 78 1014.5
20240612161908 72 273 1.7 2.6 0.00 0.00 0.00 77 1014.5
20240612161407 72 218 0.9 1.7 0.00 0.00 0.00 77 1014.5
20240612160905 72 186 0.0 0.0 0.00 0.00 0.00 79 1014.5
20240612160404 73 217 1.7 2.6 0.00 0.00 0.00 76 1014.5
20240612155902 72 181 0.0 0.9 0.00 0.00 0.00 78 1014.5
20240612155400 73 224 0.0 0.9 0.00 0.00 0.00 74 1014.8
20240612154859 71 208 0.0 0.9 0.00 0.00 0.00 78 1014.5
20240612154355 71 231 0.9 0.9 0.00 0.00 0.00 80 1014.5
20240612153855 71 215 0.0 0.9 0.00 0.00 0.00 76 1014.5
20240612153354 72 187 0.9 0.9 0.00 0.00 0.00 80 1014.5
20240612152853 72 195 0.0 0.0 0.00 0.00 0.00 77 1014.8
20240612152351 72 231 0.9 1.7 0.00 0.00 0.00 78 1014.5
20240612151850 70 177 0.0 0.0 0.00 0.00 0.00 79 1014.8
20240612151349 70 167 0.0 0.0 0.00 0.00 0.00 78 1014.8
20240612150848 70 159 0.0 0.9 0.00 0.00 0.00 80 1014.8
20240612150348 71 229 0.0 0.0 0.00 0.00 0.00 79 1015.1
20240612145846 71 279 2.6 2.6 0.00 0.00 0.00 78 1015.1
20240612145345 71 278 0.9 0.9 0.00 0.00 0.00 78 1014.8
20240612144843 70 178 0.0 0.0 0.00 0.00 0.00 79 1014.8
20240612144342 69 127 0.0 0.9 0.00 0.00 0.00 82 1015.1
20240612143842 70 142 0.0 0.0 0.00 0.00 0.00 83 1015.1
20240612143340 70 163 0.0 0.0 0.00 0.00 0.00 81 1015.1
20240612142839 69 245 0.9 0.9 0.00 0.00 0.00 82 1015.1
20240612142336 68 197 0.0 0.0 0.00 0.00 0.00 83 1015.1
20240612141834 68 179 0.0 0.0 0.00 0.00 0.00 84 1015.1
20240612141332 68 181 0.0 0.0 0.00 0.00 0.00 84 1015.1
20240612140830 68 100 0.0 0.9 0.00 0.00 0.00 83 1015.1
20240612140329 68 177 0.0 0.0 0.00 0.00 0.00 83 1015.1
20240612135827 68 177 0.0 0.9 0.00 0.00 0.00 83 1015.5
20240612135324 69 187 0.0 0.0 0.00 0.00 0.00 83 1015.1
20240612134823 68 193 0.0 0.0 0.00 0.00 0.00 82 1015.5
20240612134321 69 193 0.9 0.9 0.00 0.00 0.00 83 1015.1
20240612133820 69 149 0.9 1.7 0.00 0.00 0.00 82 1015.1
20240612133319 68 188 0.0 0.0 0.00 0.00 0.00 83 1015.5
20240612132818 68 166 0.0 0.0 0.00 0.00 0.00 83 1015.5
20240612132316 68 186 0.0 0.0 0.00 0.00 0.00 82 1015.1
20240612131815 69 137 1.7 1.7 0.00 0.00 0.00 81 1015.1
20240612131314 70 272 1.7 1.7 0.00 0.00 0.00 80 1015.5
20240612130814 69 184 0.0 0.0 0.00 0.00 0.00 81 1015.1
20240612130312 66 156 0.0 0.0 0.00 0.00 0.00 84 1015.1
20240612125812 66 178 0.0 0.0 0.00 0.00 0.00 86 1015.1
20240612125310 67 152 0.0 0.0 0.00 0.00 0.00 86 1015.1
20240612124809 67 181 0.0 0.0 0.00 0.00 0.00 84 1015.1
20240612124307 66 184 0.0 0.0 0.00 0.00 0.00 86 1014.8
20240612123806 66 191 0.0 0.0 0.00 0.00 0.00 86 1014.8
20240612123306 66 180 0.0 0.9 0.00 0.00 0.00 86 1014.8
20240612122805 65 206 1.7 1.7 0.00 0.00 0.00 86 1014.8
20240612122305 65 178 0.9 0.9 0.00 0.00 0.00 86 1015.1
20240612121804 65 164 0.0 0.9 0.00 0.00 0.00 87 1014.8
20240612121301 65 162 0.9 1.7 0.00 0.00 0.00 87 1014.5
20240612120800 65 140 0.0 0.9 0.00 0.00 0.00 87 1014.8
20240612120259 64 137 0.9 0.9 0.00 0.00 0.00 87 1014.5
20240612115757 64 168 0.0 0.0 0.00 0.00 0.00 88 1014.8
20240612115256 64 184 0.0 0.9 0.00 0.00 0.00 88 1014.5
20240612114755 64 179 0.0 0.0 0.00 0.00 0.00 89 1014.5
20240612114252 63 177 0.0 0.0 0.00 0.00 0.00 89 1014.5
20240612113751 63 165 0.0 0.0 0.00 0.00 0.00 89 1014.8
20240612113250 63 176 0.9 0.9 0.00 0.00 0.00 90 1014.5
20240612112750 63 173 0.0 0.0 0.00 0.00 0.00 90 1014.8
20240612112249 62 167 0.0 0.9 0.00 0.00 0.00 90 1014.5
20240612111747 62 176 0.0 0.0 0.00 0.00 0.00 90 1014.1
20240612111246 62 176 0.9 0.9 0.00 0.00 0.00 90 1014.5
20240612110746 62 187 0.9 0.9 0.00 0.00 0.00 91 1014.5
20240612110244 62 168 0.9 0.9 0.00 0.00 0.00 91 1014.1
20240612105742 62 176 0.0 0.0 0.00 0.00 0.00 91 1014.5
20240612105241 61 169 0.0 0.9 0.00 0.00 0.00 91 1014.5
20240612104741 61 174 0.0 0.9 0.00 0.00 0.00 92 1014.5
20240612104236 61 179 0.9 0.9 0.00 0.00 0.00 92 1014.5
20240612103735 61 177 0.0 0.0 0.00 0.00 0.00 93 1014.5
20240612103234 60 177 0.0 0.0 0.00 0.00 0.00 93 1014.1
20240612102734 60 176 0.0 0.0 0.00 0.00 0.00 93 1014.1
20240612102234 60 178 0.0 0.0 0.00 0.00 0.00 94 1014.1
20240612101732 60 160 0.0 0.0 0.00 0.00 0.00 94 1014.5
20240612101233 60 155 0.0 0.0 0.00 0.00 0.00 94 1014.1
20240612100731 60 183 0.0 0.0 0.00 0.00 0.00 94 1014.1
20240612100231 59 178 0.0 0.0 0.00 0.00 0.00 95 1014.5
20240612095729 59 170 0.0 0.0 0.00 0.00 0.00 95 1014.1
20240612095227 59 161 0.0 0.0 0.00 0.00 0.00 95 1014.1
20240612094727 59 154 0.0 0.9 0.00 0.00 0.00 95 1014.5
20240612094224 59 160 0.0 0.0 0.00 0.00 0.00 95 1014.5
20240612093723 59 179 0.0 0.0 0.00 0.00 0.00 95 1014.5
20240612093222 59 164 0.0 0.0 0.00 0.00 0.00 94 1014.5
20240612092720 59 133 0.9 1.7 0.00 0.00 0.00 94 1014.1
20240612092213 59 152 0.0 0.0 0.00 0.00 0.00 94 1014.1
20240612091713 59 179 0.0 0.9 0.00 0.00 0.00 95 1014.5
20240612091209 59 164 0.0 0.0 0.00 0.00 0.00 95 1014.1
20240612090708 59 177 0.0 0.0 0.00 0.00 0.00 95 1014.1
20240612090206 59 175 0.0 0.0 0.00 0.00 0.00 95 1014.1
20240612085706 59 170 0.0 0.0 0.00 0.00 0.00 94 1014.1
20240612085205 59 168 0.0 0.9 0.00 0.00 0.00 94 1014.1
20240612084705 59 168 0.0 0.0 0.00 0.00 0.00 94 1014.1
20240612084202 60 183 0.0 0.0 0.00 0.00 0.00 94 1014.1
20240612083702 60 172 0.0 0.0 0.00 0.00 0.00 94 1014.1
20240612083200 60 166 0.0 0.0 0.00 0.00 0.00 94 1014.1
20240612082658 60 170 0.0 0.0 0.00 0.00 0.00 94 1014.5
20240612082158 60 178 0.0 0.0 0.00 0.00 0.00 94 1014.1
20240612081657 60 179 0.0 0.0 0.00 0.00 0.00 94 1014.1
20240612081156 60 166 0.0 0.0 0.00 0.00 0.00 94 1014.1
20240612080654 60 174 0.0 0.0 0.00 0.00 0.00 94 1014.1
20240612080152 60 171 0.0 0.0 0.00 0.00 0.00 94 1014.1
20240612075651 60 171 0.0 0.0 0.00 0.00 0.00 94 1014.5
20240612075150 60 180 0.0 0.0 0.00 0.00 0.00 94 1014.5
20240612074648 60 182 0.0 0.0 0.00 0.00 0.00 93 1014.1
20240612074147 60 163 0.0 0.0 0.00 0.00 0.00 93 1014.1
20240612073645 60 178 0.0 0.0 0.00 0.00 0.00 94 1013.8
20240612073143 60 176 0.0 0.0 0.00 0.00 0.00 93 1014.5
20240612072642 60 172 0.0 0.0 0.00 0.00 0.00 93 1014.1
20240612072141 60 170 0.0 0.0 0.00 0.00 0.00 94 1014.1
20240612071639 60 171 0.0 0.0 0.00 0.00 0.00 93 1014.1
20240612071138 60 183 0.0 0.0 0.00 0.00 0.00 93 1014.1
20240612070638 60 177 0.0 0.0 0.00 0.00 0.00 93 1014.1
20240612070134 60 177 0.0 0.0 0.00 0.00 0.00 93 1014.1
20240612065632 60 170 0.0 0.0 0.00 0.00 0.00 93 1014.1
20240612065130 60 171 0.0 0.0 0.00 0.00 0.00 93 1014.1
20240612064629 60 171 0.0 0.0 0.00 0.00 0.00 93 1014.1
20240612064128 60 171 0.0 0.0 0.00 0.00 0.00 93 1014.1
20240612063625 60 171 0.0 0.0 0.00 0.00 0.00 93 1013.8
20240612063123 60 177 0.0 0.0 0.00 0.00 0.00 93 1014.1
20240612062621 60 173 0.0 0.0 0.00 0.00 0.00 93 1014.1
20240612062120 59 171 0.0 0.0 0.00 0.00 0.00 93 1014.1
20240612061619 59 160 0.0 0.0 0.00 0.00 0.00 93 1014.1
20240612061118 59 156 0.0 0.0 0.00 0.00 0.00 93 1014.1
20240612060617 59 156 0.0 0.9 0.00 0.00 0.00 94 1014.1
20240612060116 59 131 0.0 0.0 0.00 0.00 0.00 94 1014.1
20240612055615 59 158 0.0 0.0 0.00 0.00 0.00 94 1013.8
20240612055113 59 142 0.0 0.0 0.00 0.00 0.00 94 1014.1
20240612054611 59 139 0.0 0.0 0.00 0.00 0.00 94 1013.8
20240612054109 59 182 0.0 0.0 0.00 0.00 0.00 94 1014.1
20240612053610 59 159 0.0 0.9 0.00 0.00 0.00 94 1014.1
20240612053108 59 151 0.0 0.0 0.00 0.00 0.00 94 1014.1
20240612052608 59 177 0.0 0.0 0.00 0.00 0.00 94 1014.1
20240612052106 59 174 0.0 0.0 0.00 0.00 0.00 94 1014.1
20240612051605 60 147 0.9 0.9 0.00 0.00 0.00 94 1014.1
20240612051103 60 152 0.0 0.9 0.00 0.00 0.00 93 1013.8
20240612050603 60 176 0.0 0.0 0.00 0.00 0.00 92 1014.1